Location: Columbus
(29.5618°N, 96.6770°W)
Time: 04:26:43
(UTC-05:00)

Iridium 59 - Visible Passes

Search period start: 31 July 2014 00:00
Search period end: 10 August 2014 00:00
Orbit: 776 x 779 km, 86.4° (Epoch: 30 July)

Date Brightness Start Highest point End Pass type
(mag) Time Alt. Az. Time Alt. Az. Time Alt. Az.
31 Jul 5.7 05:01:51 10° SSE 05:06:54 54° E 05:11:58 10° NNE visible
01 Aug 6.9 04:29:14 10° SE 04:33:33 27° E 04:37:52 10° NNE visible
01 Aug 6.2 06:09:58 10° SW 06:14:07 24° W 06:18:18 10° NNW visible
02 Aug 7.7 03:57:52 10° ESE 04:00:18 13° E 04:02:44 10° NE visible
02 Aug 5.3 05:36:25 15° SSW 05:40:29 48° W 05:45:31 10° NNW visible
03 Aug 5.0 05:03:35 22° S 05:06:58 84° E 05:12:11 10° N visible
04 Aug 6.1 04:30:43 22° SE 04:33:32 41° E 04:38:23 10° NNE visible
04 Aug 6.6 06:11:14 10° WSW 06:14:21 16° W 06:17:29 10° NW visible
05 Aug 7.2 03:57:49 15° ESE 04:00:13 21° E 04:04:00 10° NE visible
05 Aug 5.8 05:38:20 22° SW 05:40:39 32° W 05:45:15 10° NNW visible
06 Aug 5.0 05:05:24 42° SSW 05:07:03 64° W 05:12:13 10° N visible
07 Aug 5.3 04:32:27 50° SE 04:33:34 63° E 04:38:42 10° N visible
08 Aug 6.5 03:59:28 30° E 04:00:11 31° E 04:04:43 10° NNE visible
08 Aug 6.3 05:39:58 20° W 05:40:50 21° W 05:44:43 10° NNW visible
09 Aug 7.4 03:26:28 16° E 03:26:55 16° E 03:29:55 10° NE visible
09 Aug 5.4 05:06:58 41° W 05:07:11 41° W 05:12:05 10° NNW visible
